Location: Quedlinburg
(51.7921°N, 11.1414°E)
Time: 09:48:27
(UTC+02:00)

RS-44 - Pass Details

Date: 15 March 2026
Orbit: 1175 x 1510 km, 82.5° (Epoch: 17 April)

Event Time Altitude Azimuth Distance (km) Brightness Sun altitude
Rises 02:14:41 0° 349° (NNW) 4,357 ? -35.3°
Reaches altitude 10° 02:17:26 10° 352° (N) 3,426 ? -35.1°
Maximum altitude 02:25:38 67° 75° (ENE) 1,539 ? -34.3°
Enters shadow 02:28:33 44° 139° (SE) 1,909 ? -34.0°
